Location: Unspecified
(0.0000°N, 0.0000°E)
Time: 01:40:18
(UTC+00:00)

Transit 4A - Pass Details

Date: 09 October 2020
Orbit: 862 x 982 km, 66.8° (Epoch: 25 October)

Event Time Altitude Azimuth Distance (km) Brightness Sun altitude
Rises 19:12:17 0° 238° (WSW) 3,490 12.0 -21.2°
Reaches altitude 10° 19:16:13 10° 263° (W) 2,572 11.4 -22.1°
Maximum altitude 19:18:56 13° 291° (WNW) 2,353 10.8 -22.8°
Drops below altitude 10° 19:21:42 10° 319° (NW) 2,606 10.6 -23.5°
Sets 19:25:46 0° 345° (NNW) 3,575 11.1 -24.5°
